Weather History for KOTH - October, 2011

Change the Weather History Date:

Monday, October 31, 2011

  Actual Average Record
Temperature  
Mean Temperature 51 °F 51 °F  
Max Temperature 57 °F 58 °F 80 °F (1966)
Min Temperature 45 °F 45 °F 29 °F (1920)
Degree Days  
Heating Degree Days 14 14  
Month to date heating degree days 295 359  
Since 1 July heating degree days 846 966  
Cooling Degree Days 0 0  
Month to date cooling degree days 0 0  
Year to date cooling degree days 1 2  
Growing Degree Days 2 (Base 50)    
Moisture  
Dew Point 44 °F    
Average Humidity 73    
Maximum Humidity 83    
Minimum Humidity 57    
Precipitation  
Precipitation 0.01 in 0.24 in 2.38 in (1947)
Month to date precipitation 2.73 4.73  
Year to date precipitation 30.91 43.55  
Sea Level Pressure  
Sea Level Pressure 30.41 in    
Wind  
Wind Speed 10 mph (North)    
Max Wind Speed 24 mph    
Max Gust Speed 29 mph    
Visibility 9 miles    
Events      
T = Trace of Precipitation, MM = Missing Value Source: NWS Daily Summary

Daily Weather History Graph

Daily Weather History Graph

Search for Another Location

Airport or City:

Trip Planner

Search our weather history database for the weather conditions in past years. The results will help you decide how hot, cold, wet, or windy it might be!

Date:

Astronomy

Oct. 31, 2011 Rise Set
Actual Time 7:50 AM PDT 6:09 PM PDT
Civil Twilight 7:21 AM PDT 6:39 PM PDT
Nautical Twilight 6:47 AM PDT 7:13 PM PDT
Astronomical Twilight 6:14 AM PDT 7:46 PM PDT
Moon 1:05 PM PDT (10/31) 10:49 PM PDT (10/31)
Length of Visible Light 11h 18m
Length of Day
10h 18m
Waxing Crescent, 31% of the Moon is Illuminated
Oct 31
Waxing Crescent
Nov 2
First Quarter
Nov 10
Full
Nov 18
Last Quarter
Nov 24
New

Hourly Weather History & Observations

Time (PDT) Temp. Windchill Dew Point Humidity Pressure Visibility Wind Dir Wind Speed Gust Speed Precip Events Conditions
12:15 AM 53.6 °F - 48.2 °F 82% 30.34 in 5.0 mi North 3.5 mph - 0.03 in   Overcast
12:35 AM 53.6 °F - 48.2 °F 82% 30.35 in 4.0 mi North 17.3 mph 23.0 mph 0.04 in   Mostly Cloudy
12:55 AM 53.6 °F - 48.2 °F 82% 30.36 in 3.0 mi North 17.3 mph 21.9 mph 0.05 in   Overcast
1:15 AM 51.8 °F - 48.2 °F 88% 30.36 in 4.0 mi North 13.8 mph - N/A   Mostly Cloudy
1:35 AM 53.6 °F - 48.2 °F 82% 30.36 in 4.0 mi North 15.0 mph - N/A   Overcast
1:55 AM 51.8 °F - 46.4 °F 82% 30.37 in 10.0 mi North 13.8 mph - 0.01 in   Mostly Cloudy
2:15 AM 51.8 °F - 46.4 °F 82% 30.37 in 10.0 mi North 10.4 mph - N/A   Overcast
2:35 AM 51.8 °F - 46.4 °F 82% 30.37 in 10.0 mi North 8.1 mph - N/A   Unknown
2:55 AM 51.8 °F - 46.4 °F 82% 30.37 in 10.0 mi NNE 5.8 mph - N/A   Overcast
3:15 AM 51.8 °F - 46.4 °F 82% 30.37 in 10.0 mi North 5.8 mph - N/A   Overcast
3:35 AM 51.8 °F - 46.4 °F 82% 30.37 in 10.0 mi North 5.8 mph - N/A   Overcast
3:55 AM 51.8 °F - 46.4 °F 82% 30.37 in 10.0 mi North 5.8 mph - N/A   Overcast
4:15 AM 51.8 °F - 44.6 °F 76% 30.38 in 10.0 mi North 5.8 mph - N/A   Overcast
4:35 AM 51.8 °F - 44.6 °F 76% 30.38 in 10.0 mi North 6.9 mph - N/A   Overcast
4:55 AM 51.8 °F - 44.6 °F 76% 30.38 in 10.0 mi North 6.9 mph - N/A   Mostly Cloudy
5:15 AM 50.0 °F - 42.8 °F 76% 30.39 in 10.0 mi North 5.8 mph - N/A   Partly Cloudy
5:35 AM 50.0 °F - 42.8 °F 76% 30.39 in 10.0 mi North 4.6 mph - N/A   Clear
5:55 AM 48.2 °F - 42.8 °F 82% 30.39 in 8.0 mi Calm Calm - N/A   Clear
6:15 AM 48.2 °F - 42.8 °F 82% 30.40 in 10.0 mi Calm Calm - N/A   Clear
6:35 AM 46.4 °F - 41.0 °F 81% 30.40 in 10.0 mi Calm Calm - N/A   Clear
6:55 AM 46.4 °F 43.5 °F 41.0 °F 81% 30.41 in 10.0 mi NNE 5.8 mph - N/A   Clear
7:15 AM 46.4 °F 43.5 °F 41.0 °F 81% 30.41 in 10.0 mi North 5.8 mph - N/A   Clear
7:35 AM 46.4 °F - 41.0 °F 81% 30.41 in 10.0 mi Calm Calm - N/A   Clear
7:55 AM 46.4 °F - 41.0 °F 81% 30.41 in 10.0 mi Calm Calm - N/A   Clear
8:15 AM 46.4 °F - 39.2 °F 76% 30.42 in 10.0 mi Calm Calm - N/A   Clear
8:35 AM 46.4 °F - 39.2 °F 76% 30.43 in 10.0 mi Calm Calm - N/A   Clear
8:55 AM 46.4 °F 43.5 °F 41.0 °F 81% 30.43 in 10.0 mi NNE 5.8 mph - N/A   Clear
9:15 AM 48.2 °F - 42.8 °F 82% 30.44 in 10.0 mi NNE 4.6 mph - N/A   Mostly Cloudy
9:35 AM 48.2 °F - 42.8 °F 82% 30.44 in 10.0 mi North 3.5 mph - N/A   Overcast
9:55 AM 50.0 °F - 42.8 °F 76% 30.44 in 10.0 mi North 4.6 mph - N/A   Scattered Clouds
10:15 AM 51.8 °F - 42.8 °F 71% 30.45 in 10.0 mi NNE 4.6 mph - N/A   Clear
10:35 AM 53.6 °F - 44.6 °F 72% 30.45 in 10.0 mi NNE 3.5 mph - N/A   Clear
10:55 AM 55.4 °F - 46.4 °F 72% 30.45 in 10.0 mi NNE 3.5 mph - N/A   Clear
11:15 AM 55.4 °F - 44.6 °F 67% 30.45 in 10.0 mi NNE 6.9 mph - N/A   Clear
11:35 AM 55.4 °F - 44.6 °F 67% 30.45 in 10.0 mi NNE 12.7 mph 17.3 mph N/A   Clear
11:55 AM 57.2 °F - 44.6 °F 63% 30.46 in 10.0 mi NNE 10.4 mph - N/A   Clear
12:15 PM 57.2 °F - 42.8 °F 59% 30.45 in 10.0 mi NNE 12.7 mph - N/A   Clear
12:35 PM 57.2 °F - 42.8 °F 59% 30.44 in 10.0 mi North 13.8 mph - N/A   Partly Cloudy
12:55 PM 57.2 °F - 42.8 °F 59% 30.44 in 10.0 mi NNE 11.5 mph 19.6 mph N/A   Partly Cloudy
1:15 PM 57.2 °F - 42.8 °F 59% 30.44 in 10.0 mi North 16.1 mph - N/A   Mostly Cloudy
1:35 PM 55.4 °F - 44.6 °F 67% 30.43 in 10.0 mi North 15.0 mph - N/A   Overcast
1:55 PM 55.4 °F - 44.6 °F 67% 30.43 in 10.0 mi North 13.8 mph 18.4 mph N/A   Partly Cloudy
2:15 PM 57.2 °F - 44.6 °F 63% 30.43 in 10.0 mi North 15.0 mph - N/A   Partly Cloudy
2:35 PM 55.4 °F - 42.8 °F 63% 30.43 in 10.0 mi North 18.4 mph 25.3 mph N/A   Partly Cloudy
2:55 PM 57.2 °F - 44.6 °F 63% 30.43 in 10.0 mi North 16.1 mph 24.2 mph N/A   Clear
3:15 PM 55.4 °F - 42.8 °F 63% 30.43 in 10.0 mi North 18.4 mph 25.3 mph N/A   Clear
3:35 PM 55.4 °F - 42.8 °F 63% 30.43 in 10.0 mi North 16.1 mph 25.3 mph N/A   Clear
3:55 PM 55.4 °F - 44.6 °F 67% 30.43 in 10.0 mi North 20.7 mph 24.2 mph N/A   Scattered Clouds
4:15 PM 55.4 °F - 42.8 °F 63% 30.43 in 10.0 mi North 18.4 mph 24.2 mph N/A   Partly Cloudy
4:35 PM 55.4 °F - 41.0 °F 58% 30.44 in 10.0 mi North 17.3 mph 25.3 mph N/A   Clear
4:55 PM 55.4 °F - 42.8 °F 63% 30.44 in 10.0 mi North 24.2 mph 28.8 mph N/A   Clear
5:15 PM 53.6 °F - 41.0 °F 62% 30.44 in 10.0 mi North 17.3 mph 28.8 mph N/A   Clear
5:35 PM 53.6 °F - 39.2 °F 58% 30.44 in 10.0 mi North 21.9 mph 28.8 mph N/A   Clear
5:55 PM 51.8 °F - 41.0 °F 67% 30.45 in 10.0 mi North 21.9 mph 26.5 mph N/A   Clear
6:15 PM 51.8 °F - 41.0 °F 67% 30.45 in 10.0 mi North 19.6 mph 25.3 mph N/A   Clear
6:35 PM 51.8 °F - 39.2 °F 62% 30.46 in 10.0 mi North 18.4 mph 23.0 mph N/A   Clear
6:55 PM 51.8 °F - 39.2 °F 62% 30.46 in 10.0 mi North 15.0 mph - N/A   Clear
7:15 PM 51.8 °F - 37.4 °F 58% 30.46 in 10.0 mi North 15.0 mph - N/A   Clear
7:35 PM 50.0 °F - 37.4 °F 62% 30.46 in 10.0 mi North 12.7 mph - N/A   Clear
7:55 PM 48.2 °F - 37.4 °F 66% 30.47 in 10.0 mi North 11.5 mph - N/A   Clear
8:15 PM 48.2 °F - 37.4 °F 66% 30.47 in 10.0 mi North 11.5 mph - N/A   Clear
8:35 PM 48.2 °F - 37.4 °F 66% 30.48 in 10.0 mi North 8.1 mph - N/A   Clear
8:55 PM 48.2 °F - 37.4 °F 66% 30.47 in 10.0 mi NNE 9.2 mph - N/A   Clear
9:15 PM 48.2 °F - 37.4 °F 66% 30.48 in 10.0 mi North 9.2 mph - N/A   Clear
9:35 PM 48.2 °F - 37.4 °F 66% 30.48 in 10.0 mi North 9.2 mph - N/A   Clear
9:55 PM 48.2 °F - 37.4 °F 66% 30.48 in 10.0 mi North 9.2 mph - N/A   Clear
10:15 PM 46.4 °F 42.4 °F 37.4 °F 71% 30.49 in 10.0 mi North 8.1 mph - N/A   Clear
10:35 PM 46.4 °F 42.9 °F 35.6 °F 66% 30.49 in 10.0 mi North 6.9 mph - N/A   Clear
10:55 PM 46.4 °F 42.4 °F 37.4 °F 71% 30.49 in 10.0 mi North 8.1 mph - N/A   Clear
11:15 PM 44.6 °F 41.4 °F 35.6 °F 71% 30.50 in 10.0 mi NNE 5.8 mph - N/A   Clear
11:35 PM 44.6 °F 40.7 °F 35.6 °F 71% 30.50 in 10.0 mi North 6.9 mph - N/A   Clear
11:55 PM 44.6 °F 40.7 °F 35.6 °F 71% 30.50 in 10.0 mi North 6.9 mph - N/A   Clear